Location: Kumla
(59.1265°N, 15.1401°E)
Time: 19:01:36
(UTC+01:00)

A-11 Canister half - Pass Details

Date: 12 December 2023
Orbit: 1526 x 1682 km, 47.3° (Epoch: 21 February)

Event Time Altitude Azimuth Distance (km) Brightness Sun altitude
Rises 18:39:07 0° 237° (WSW) 4,922 12.6 -25.5°
Reaches altitude 10° 18:42:31 10° 230° (SW) 3,941 11.8 -25.9°
Maximum altitude 18:51:37 40° 166° (SSE) 2,321 9.7 -27.1°
Enters shadow 18:54:21 34° 135° (SE) 2,510 9.7 -27.5°
